Presure
139 136 134 128 132 110 129 142 112 157 127 132 136 137 146 132 138 155 194 193 176 185 164 161 112 149 156 146 199 164 166 181 165
134 115 135 137 139 131 137 141 133 139 118 127 135 104 127 133 138 145 165 131 147 138 150 99 111 143 154 154 130 163 175 155 162
124 141 155 138 136 142 135 140 149 136 123 141 113 140 101 126 135 133 122 144 149 114 108 168 136 160 144 122 138 165 170 176 174
128 137 78 110 149 127 129 100 140 122 131 132 140 131 121 123 139 125 129 143 172 138 131 146 166 133 126 165 180 164 141 142 163
138 138 132 162 159 124 135 140 139 134 141 113 116 112 126 106 131 133 124 109 126 126 144 124 119 124 164 173 147 189 164 172 167
143 132 169 119 130 149 131 123 124 125 123 104 105 130 112 127 138 131 99 159 124 138 107 163 113 176 139 171 135 183 170 176 161
140 129 147 109 159 150 144 140 137 133 130 131 127 138 123 136 141 96 126 125 136 157 151 143 179 175 140 170 174 181 185 159 168
130 147 140 140 135 134 133 142 151 123 126 127 141 122 116 138 103 135 133 132 97 123 182 187 168 148 153 186 123 180 180 177 161
156 147 152 135 127 139 134 125 153 168 110 92 133 92 150 138 149 143 125 95 132 135 181 166 185 180 148 187 177 180 179 121 180
151 150 157 151 152 138 155 120 122 128 106 121 124 134 131 135 137 149 92 95 128 85 191 192 185 192 184 124 181 183 179 110 119
160 159 134 149 132 153 136 132 127 135 113 131 140 149 142 109 136 158 191 174 117 191 141 192 194 194 96 184 182 175 127 181 174
138 144 157 150 124 135 127 107 112 137 117 113 139 127 109 151 113 195 202 192 195 197 197 201 193 181 189 186 182 174 189 180 188
137 137 136 129 127 118 136 104 128 124 144 130 129 141 155 132 140 147 205 201 200 191 194 193 198 189 185 154 199 192 197 194 173
128 124 126 139 116 127 133 137 159 139 166 129 133 130 137 135 137 209 204 203 87 199 158 202 151 194 194 193 183 185 176 254 189
122 132 131 126 118 155 124 97 148 126 124 134 127 144 109 133 203 203 202 199 197 200 195 190 190 187 198 159 179 222 173 253 241
113 130 133 138 144 145 111 134 107 140 139 171 119 187 124 194 199 198 195 198 199 193 194 191 189 262 224 187 107 232 239 243 242
134 87 96 123 131 132 115 147 144 156 190 199 138 123 196 195 193 188 192 191 194 191 187 196 240 176 193 241 113 249 234 240 242
189 169 165 167 122 144 138 164 192 199 156 125 133 169 195 195 192 191 193 191 159 196 215 172 163 210 246 235 247 237 243 248 240
174 201 199 200 147 195 160 159 190 143 183 199 197 194 195 198 199 195 203 200 146 214 182 204 137 241 246 239 235 236 242 225 265
197 202 134 122 201 199 138 195 199 199 197 193 196 200 201 202 199 203 204 210 197 194 226 223 238 202 241 237 233 236 261 269 257
Wind_Speed
25 24 21 15 19 17 16 25 15 17 21 24 26 27 26 35 39 37 36 35 33 36 39 39 25 36 37 36 44 41 42 52 46
26 21 25 29 27 23 26 28 24 25 16 22 29 10 34 38 42 40 40 29 43 38 42 21 21 40 40 42 31 43 43 39 42
23 31 34 28 26 29 24 24 28 23 21 28 20 27 22 39 44 45 27 37 49 22 33 48 42 49 27 23 36 48 51 55 58
26 33 3 21 36 17 20 16 25 18 26 26 28 30 33 37 43 39 28 41 49 55 36 57 61 3 14 56 59 50 45 42 46
38 37 27 42 42 16 31 32 29 27 30 18 17 26 38 24 44 48 46 32 50 33 58 12 7 21 65 64 43 65 54 65 56
43 36 47 20 32 44 29 16 21 24 22 18 17 32 30 44 49 48 22 55 15 38 15 67 14 73 31 74 27 70 60 66 52
40 34 47 27 45 46 45 44 36 34 33 31 30 34 40 45 46 22 49 16 59 39 33 38 68 70 50 70 77 75 74 48 63
37 49 45 45 37 38 37 43 48 28 28 27 39 34 27 45 18 49 56 55 16 15 64 65 53 42 47 69 43 80 78 75 63
55 52 53 42 31 46 38 27 48 54 21 14 37 18 45 46 46 48 48 13 61 65 64 52 71 71 52 73 75 80 78 41 78
58 56 58 54 52 35 51 38 33 25 30 31 32 39 41 48 51 54 16 17 54 20 62 61 70 69 70 38 76 78 78 35 38
63 63 39 51 38 53 38 37 29 34 23 39 45 50 46 32 51 63 65 66 45 66 42 67 68 70 36 73 76 75 50 79 78
52 59 67 51 25 39 30 24 30 43 29 32 47 39 33 57 28 74 71 67 72 72 72 70 71 65 74 74 78 78 85 82 86
54 52 42 23 41 33 46 38 40 36 55 46 46 56 62 46 59 63 73 74 72 74 74 76 77 77 78 61 85 84 85 88 81
36 28 34 49 32 33 48 48 65 57 74 53 58 52 60 61 64 76 77 78 24 78 58 77 48 78 79 82 83 86 81 68 72
34 45 42 37 32 72 39 22 63 44 51 62 57 70 34 64 77 78 79 78 80 81 80 80 81 78 81 56 81 70 82 73 79
39 50 52 58 65 64 32 49 35 59 64 77 30 78 55 81 82 80 81 81 82 81 83 81 82 65 82 84 31 81 82 79 76
57 25 29 43 51 53 38 66 64 71 87 81 65 45 81 81 83 84 85 85 86 84 83 89 76 79 88 80 35 78 75 80 81
97 88 88 86 52 68 59 76 93 92 73 59 70 82 84 84 86 87 89 87 67 91 93 72 80 93 77 84 79 83 84 86 84
82 96 94 96 70 97 77 77 94 70 82 85 87 85 89 90 91 88 93 94 69 95 84 94 46 85 80 83 84 85 85 82 83
93 95 67 50 99 96 66 94 93 89 88 87 88 91 92 92 93 95 95 95 92 90 90 95 82 72 84 86 86 87 80 72 76
Wind_Direction
262 274 280 288 291 224 303 277 274 290 329 319 314 315 320 326 321 331 322 321 315 314 320 319 333 319 323 331 318 324 338 327 340
267 223 268 268 267 281 284 277 295 291 319 317 311 253 325 321 316 323 324 318 321 318 314 260 284 322 321 325 313 336 326 331 336
238 256 256 266 276 271 282 274 277 293 316 295 306 304 272 322 313 319 323 316 319 311 318 309 322 310 338 303 323 335 332 338 344
246 262 265 207 266 266 275 259 281 308 302 307 294 305 319 321 306 319 306 315 316 314 333 321 312 17 339 326 325 330 313 304 342
260 266 266 255 260 263 281 280 284 288 284 301 298 308 309 295 303 311 319 295 320 315 317 15 334 329 317 322 329 324 329 333 336
252 258 251 254 274 263 283 283 283 293 294 297 304 294 300 305 300 309 250 314 317 312 291 313 299 311 324 318 325 322 327 326 329
253 265 256 250 256 261 264 274 275 280 281 285 294 293 301 294 295 269 312 293 312 294 310 298 304 307 307 313 315 316 318 316 326
258 255 260 263 266 269 270 268 268 279 282 294 291 292 291 296 285 302 310 309 270 283 302 300 302 313 307 307 306 314 317 321 316
254 254 252 258 259 262 265 273 267 272 276 234 287 266 296 297 300 297 307 239 308 307 300 296 298 304 297 305 307 310 314 295 314
261 263 261 263 261 257 263 259 261 265 264 277 291 294 299 300 301 300 263 303 302 302 297 296 298 300 301 304 306 307 309 283 294
260 264 251 264 252 272 266 275 267 290 283 290 294 294 293 288 298 299 300 297 282 301 301 298 297 297 288 300 302 305 298 306 310
259 263 265 264 230 271 274 264 252 296 282 268 297 299 286 296 280 298 297 297 299 300 301 299 297 301 300 301 302 304 305 306 305
258 261 262 260 266 253 282 244 292 284 276 296 298 293 294 288 292 293 296 296 299 299 300 300 302 302 303 312 301 300 301 301 308
254 243 254 270 246 274 276 282 277 284 280 292 291 283 292 291 292 296 297 298 278 296 297 296 303 298 299 297 298 299 303 294 304
260 265 268 267 257 271 273 260 276 287 286 289 294 292 295 294 292 292 292 295 295 296 298 299 299 299 298 291 296 297 303 295 289
255 262 264 267 268 271 257 279 260 283 284 282 271 285 294 289 290 292 292 293 293 295 295 295 296 300 301 298 272 295 296 297 299
260 229 256 262 270 275 259 276 278 279 275 279 285 294 284 286 287 290 290 292 292 293 294 297 296 295 299 297 276 296 299 301 302
249 255 257 260 261 271 278 273 270 273 277 280 282 282 285 286 285 287 288 289 296 294 295 294 298 302 292 294 300 299 305 306 305
252 252 254 258 267 261 269 271 272 276 279 281 281 285 284 284 285 288 290 290 299 294 291 300 296 295 295 297 299 302 305 306 305
249 251 262 263 258 263 271 270 273 276 278 279 282 280 282 285 286 287 288 290 292 293 294 295 293 295 300 303 303 303 302 302 304